Location: Sungai Apap
(2.6167°N, 113.3833°E)
Time: 16:39:09
(UTC+00:00)

Cosmos 2263 Rocket - Pass Details

Date: 25 May 2024
Orbit: 824 x 846 km, 71.0° (Epoch: 11 June)

Event Time Altitude Azimuth Distance (km) Brightness Sun altitude
Exits shadow 20:13:31 30° 151° (SSE) 1,458 3.4 -29.0°
Maximum altitude 20:15:36 42° 105° (ESE) 1,180 3.2 -28.5°
Drops below altitude 10° 20:20:52 10° 35° (NE) 2,443 5.3 -27.3°
Sets 20:23:24 0° 29° (NNE) 3,371 6.1 -26.7°
